Location: Peebles
(55.6412°N, 3.1714°W)
Time: 06:18:17
(UTC+01:00)

Altair 2 - Pass Details

Date: 09 July 2022
Orbit: 702 x 2529 km, 96.4° (Epoch: 10 August)

Event Time Altitude Azimuth Distance (km) Brightness Sun altitude
Rises 02:11:17 0° 97° (E) 5,376 11.9 -11.2°
Reaches altitude 10° 02:16:03 10° 82° (E) 4,047 11.5 -11.0°
Maximum altitude 02:21:44 18° 45° (NE) 3,014 11.4 -10.8°
Drops below altitude 10° 02:26:26 10° 6° (N) 3,226 12.2 -10.6°
Sets 02:29:39 0° 348° (NNW) 3,929 12.4 -10.5°
